Погода в Учкекене

Россия / Карачаево-Черкесская Республика     43°56′20″N   42°30′55″E
темп.,
°C
ветер,
м/с
пор.,
м/с
влажн.,
%
обл.,
%
осадки,
мм/ч
давл.,
гПа
погр.,
м
17 апреля, сб
сб1700:00+7ю1181100 0.0 101810
03:00+9ююз115898 0.0 101710
06:00+8ссз1173100 0.0 101931
09:00+8сз2489100 0.1 1021728
12:00+7с2495100 0.6 1022472
15:00+6ссв2294100 0.9 1023360
18:00+5всв3498100 0.5 1022320
21:00+5св1299100 0.6 1023218
18 апреля, вс
вс1800:00+5всв2299100 0.0 1022186
03:00+5в1197100 0.0 102014
06:00+6юв1188100 0.0 101820
09:00+11в2273100 0.0 1016270
12:00+13св3274100 1.2 1016508
15:00+12св2283100 2.8 1017409
18:00+12св11855 2.3 1016153
21:00+9юз1194100 4.5 101711
19 апреля, пн
пн1900:00+9ю2276100 0.5 101713
03:00+10ю2268100 0.5 101614
06:00+11ю3269100 0.1 101620
09:00+15вюв1257100 0.1 1016559
12:00+18в445092 0.1 10131552
15:00+18всв3357100 0.6 10131099
18:00+13ссв2387100 1.1 1015313
21:00+12в4992100 2.1 1014403
20 апреля, вт
вт2000:00+10юв228996 0.0 101230
03:00+12ююв3269100 0.1 100826
06:00+13ю3363100 0.0 100634
09:00+21ю3850100 0.0 1004443
12:00+22зюз0243100 0.0 1004629
15:00+21зсз3453100 0.0 1004416
18:00+14ссз5889100 0.1 1008553
21:00+10с2294100 1.1 1012329
21 апреля, ср
ср2100:00+9в1290100 0.1 1015235
03:00+9вюв2490100 0.3 1015218
06:00+9в4989100 0.0 1015539
09:00+7в5994100 0.6 1018630
12:00+8в7987100 0.1 1018704
15:00+8в6884100 0.1 1019662
18:00+7в61086100 0.1 1020754
21:00+6в5987100 0.1 1022564